Regional Weather Roundup
Issued by NWS Goodland, KS

Home | Current Version | Previous Version | Text Only | Print | Product List | Glossary On
Versions: 1 2 3 4 5 6 7 8 9 10 11 12 13 14 15 16 17 18 19 20 21 22 23 24 25 26 27 28 29 30 31 32 33 34 35 36 37 38 39 40 41 42 43 44 45 46 47 48 49 50
000
ASUS43 KGLD 271259
RWRGLD

GOODLAND FORECAST AREA HOURLY WEATHER ROUNDUP
NATIONAL WEATHER SERVICE GOODLAND KS
700 AM MDT SAT MAY 27 2017

...OFFICIAL OBSERVATIONS...

CITY           SKY/WX    TMP DP  RH WIND       PRES   REMARKS
GOODLAND KS    CLOUDY    53  52  96 NW18      29.95R
HILL CITY KS   PTSUNNY   58  57  97 W8        29.89R
IMPERIAL NEB   CLOUDY    52  50  93 N12       29.96R
MCCOOK NEB     MOSUNNY   58  56  93 N13       29.91R
AKRON CO       CLOUDY    50  46  86 NW13      30.03R
BURLINGTON CO  CLOUDY    53  50  89 N14       29.99R
LIMON CO       PTSUNNY   48  45  89 NW14      30.05R
$$

...UNOFFICIAL OBSERVATIONS...

CITY           SKY/WX    TMP DP  RH WIND       PRES   REMARKS
LENORA KS        N/A     55  32  41 MISG        N/A
NORTON KS      PTSUNNY   55  52  88 W7        29.89R
SHARON SPRINGS   N/A     56  52  86 N16G23      N/A
TRENTON NEB      N/A     54  32  43 N7          N/A
$$



USA.gov is the U.S. government's official web portal to all federal, state and local government web resources and services.